Time,TemperatureF,DewpointF,PressureIn,WindDirection,WindDirectionDegrees,WindSpeedMPH,WindSpeedGustMPH,Humidity,HourlyPrecipIn,Conditions,Clouds,dailyrainin,SoftwareType,DateUTC
2013-04-05 00:03:00,67.0,65.0,29.83,SSE,153,6.0,11.0,92,0.00,,,2.52,,2013-04-05 04:03:00,
2013-04-05 00:13:00,67.0,65.0,29.83,SSE,153,6.0,11.0,92,0.00,,,2.52,,2013-04-05 04:13:00,
2013-04-05 00:23:00,67.0,65.0,29.84,SSW,207,5.0,12.0,92,0.00,,,2.53,,2013-04-05 04:23:00,
2013-04-05 00:33:00,66.0,64.0,29.85,East,79,5.0,15.0,92,0.00,,,2.54,,2013-04-05 04:33:00,
2013-04-05 00:42:00,66.0,64.0,29.85,East,79,5.0,15.0,92,0.00,,,2.54,,2013-04-05 04:42:00,
2013-04-05 00:52:00,66.0,64.0,29.78,South,174,4.0,10.0,93,0.00,,,2.57,,2013-04-05 04:52:00,
2013-04-05 01:02:00,66.0,64.0,29.78,ESE,109,2.0,8.0,93,0.00,,,2.57,,2013-04-05 05:02:00,
2013-04-05 01:13:00,66.0,64.0,29.78,ESE,109,2.0,8.0,93,0.00,,,2.57,,2013-04-05 05:13:00,
2013-04-05 01:22:00,66.0,64.0,29.78,SSW,200,5.0,12.0,93,0.00,,,2.58,,2013-04-05 05:22:00,
2013-04-05 01:32:00,65.0,63.0,29.78,ESE,105,3.0,9.0,93,0.00,,,2.58,,2013-04-05 05:32:00,
2013-04-05 01:42:00,65.0,63.0,29.78,ESE,105,3.0,9.0,93,0.00,,,2.58,,2013-04-05 05:42:00,
2013-04-05 01:53:00,65.0,63.0,29.77,SSW,196,3.0,7.0,93,0.00,,,2.58,,2013-04-05 05:53:00,
2013-04-05 02:02:00,65.0,63.0,29.77,WSW,238,0.0,1.0,93,0.00,,,2.57,,2013-04-05 06:02:00,
2013-04-05 02:12:00,65.0,63.0,29.77,WSW,238,0.0,1.0,93,0.00,,,2.57,,2013-04-05 06:12:00,
2013-04-05 02:22:00,65.0,63.0,29.78,South,169,5.0,7.0,92,0.00,,,2.57,,2013-04-05 06:22:00,
2013-04-05 02:32:00,65.0,63.0,29.78,SSW,202,0.0,1.0,92,0.00,,,2.57,,2013-04-05 06:32:00,
2013-04-05 02:42:00,65.0,63.0,29.78,SSW,202,0.0,1.0,92,0.00,,,2.57,,2013-04-05 06:42:00,
2013-04-05 02:52:00,65.0,63.0,29.78,South,190,3.0,6.0,92,0.00,,,2.57,,2013-04-05 06:52:00,
2013-04-05 03:03:00,65.0,63.0,29.79,SSE,167,4.0,5.0,92,0.00,,,2.57,,2013-04-05 07:03:00,
2013-04-05 03:12:00,65.0,63.0,29.79,SSE,167,4.0,5.0,92,0.00,,,2.57,,2013-04-05 07:12:00,
2013-04-05 03:22:00,65.0,63.0,29.79,SSW,206,2.0,6.0,92,0.00,,,2.57,,2013-04-05 07:22:00,
2013-04-05 03:32:00,65.0,63.0,29.78,SE,146,1.0,2.0,92,0.00,,,2.57,,2013-04-05 07:32:00,
2013-04-05 03:42:00,65.0,63.0,29.78,SE,146,1.0,2.0,92,0.00,,,2.57,,2013-04-05 07:42:00,
2013-04-05 03:52:00,65.0,62.0,29.77,SE,138,0.0,1.0,91,0.00,,,2.57,,2013-04-05 07:52:00,
2013-04-05 04:03:00,65.0,62.0,29.77,SSW,205,2.0,4.0,91,0.00,,,2.57,,2013-04-05 08:03:00,
2013-04-05 04:13:00,65.0,62.0,29.77,SSW,205,2.0,4.0,91,0.00,,,2.57,,2013-04-05 08:13:00,
2013-04-05 04:22:00,65.0,62.0,29.77,SSW,211,0.0,0.0,91,0.00,,,2.57,,2013-04-05 08:22:00,
2013-04-05 04:32:00,65.0,62.0,29.76,SSW,211,0.0,0.0,91,0.00,,,2.56,,2013-04-05 08:32:00,
2013-04-05 04:43:00,65.0,62.0,29.76,SSW,211,0.0,0.0,91,0.00,,,2.56,,2013-04-05 08:43:00,
2013-04-05 04:52:00,65.0,62.0,29.76,SSW,213,0.0,0.0,91,0.00,,,2.52,,2013-04-05 08:52:00,
2013-04-05 05:02:00,65.0,62.0,29.76,SW,234,2.0,4.0,91,0.00,,,2.41,,2013-04-05 09:02:00,
2013-04-05 05:12:00,65.0,62.0,29.76,SW,234,2.0,4.0,91,0.00,,,2.41,,2013-04-05 09:12:00,
2013-04-05 05:22:00,65.0,62.0,29.75,South,188,1.0,4.0,91,0.00,,,2.34,,2013-04-05 09:22:00,
2013-04-05 05:33:00,65.0,62.0,29.74,South,189,2.0,4.0,91,0.00,,,2.28,,2013-04-05 09:33:00,
2013-04-05 05:43:00,65.0,62.0,29.74,South,189,2.0,4.0,91,0.00,,,2.28,,2013-04-05 09:43:00,
2013-04-05 05:53:00,65.0,62.0,29.74,South,185,3.0,5.0,91,0.00,,,2.20,,2013-04-05 09:53:00,
2013-04-05 06:03:00,66.0,63.0,29.75,South,175,2.0,3.0,91,0.00,,,2.15,,2013-04-05 10:03:00,
2013-04-05 06:13:00,66.0,63.0,29.75,South,175,2.0,3.0,91,0.00,,,2.15,,2013-04-05 10:13:00,
2013-04-05 06:23:00,66.0,63.0,29.75,SSW,207,1.0,6.0,91,0.00,,,2.11,,2013-04-05 10:23:00,
2013-04-05 06:33:00,66.0,63.0,29.74,SSW,208,4.0,7.0,91,0.00,,,2.09,,2013-04-05 10:33:00,
2013-04-05 06:43:00,66.0,63.0,29.74,SSW,208,4.0,7.0,91,0.00,,,2.09,,2013-04-05 10:43:00,
2013-04-05 06:53:00,66.0,63.0,29.74,SW,214,2.0,6.0,91,0.00,,,2.08,,2013-04-05 10:53:00,
2013-04-05 07:03:00,66.0,63.0,29.75,SW,221,2.0,4.0,90,0.00,,,2.07,,2013-04-05 11:03:00,
2013-04-05 07:22:00,66.0,63.0,29.76,SSW,196,0.0,2.0,90,0.00,,,2.07,,2013-04-05 11:22:00,
2013-04-05 07:33:00,66.0,63.0,29.76,SW,231,1.0,4.0,90,0.00,,,2.06,,2013-04-05 11:33:00,
2013-04-05 07:42:00,66.0,63.0,29.76,SW,231,1.0,4.0,90,0.00,,,2.06,,2013-04-05 11:42:00,
2013-04-05 07:52:00,66.0,63.0,29.77,SW,236,1.0,4.0,90,0.00,,,2.06,,2013-04-05 11:52:00,
2013-04-05 08:02:00,66.0,63.0,29.77,SW,226,1.0,4.0,90,0.00,,,2.06,,2013-04-05 12:02:00,
2013-04-05 08:12:00,66.0,63.0,29.77,SW,226,1.0,4.0,90,0.00,,,2.06,,2013-04-05 12:12:00,
2013-04-05 08:22:00,67.0,64.0,29.79,WSW,252,1.0,3.0,90,0.00,,,2.06,,2013-04-05 12:22:00,
2013-04-05 08:32:00,67.0,64.0,29.80,WSW,248,1.0,2.0,90,0.00,,,2.05,,2013-04-05 12:32:00,
2013-04-05 08:42:00,67.0,64.0,29.80,WSW,248,1.0,2.0,90,0.00,,,2.05,,2013-04-05 12:42:00,
2013-04-05 08:52:00,67.0,64.0,29.80,SW,215,2.0,5.0,90,0.00,,,2.01,,2013-04-05 12:52:00,
2013-04-05 09:02:00,68.0,65.0,29.80,SW,229,3.0,5.0,90,0.00,,,2.00,,2013-04-05 13:02:00,
2013-04-05 09:12:00,68.0,65.0,29.80,SW,229,3.0,5.0,90,0.00,,,2.00,,2013-04-05 13:12:00,
2013-04-05 09:23:00,68.0,65.0,29.80,SSW,205,5.0,7.0,90,0.00,,,1.95,,2013-04-05 13:23:00,
2013-04-05 09:32:00,68.0,65.0,29.81,SSW,213,5.0,7.0,89,0.00,,,1.59,,2013-04-05 13:32:00,
2013-04-05 09:42:00,68.0,65.0,29.81,SSW,213,5.0,7.0,89,0.00,,,1.59,,2013-04-05 13:42:00,
2013-04-05 09:52:00,68.0,65.0,29.80,SW,236,5.0,8.0,89,0.00,,,1.48,,2013-04-05 13:52:00,
2013-04-05 10:03:00,69.0,66.0,29.80,SW,232,5.0,9.0,89,0.00,,,1.43,,2013-04-05 14:03:00,
2013-04-05 10:12:00,69.0,66.0,29.80,SW,232,5.0,9.0,89,0.00,,,1.43,,2013-04-05 14:12:00,
2013-04-05 10:23:00,70.0,66.0,29.80,SW,215,5.0,8.0,88,0.00,,,1.43,,2013-04-05 14:23:00,
2013-04-05 10:37:00,71.0,67.0,29.80,South,178,5.0,10.0,87,0.00,,,1.43,,2013-04-05 14:37:00,
2013-04-05 10:43:00,71.0,67.0,29.80,South,178,5.0,10.0,87,0.00,,,1.43,,2013-04-05 14:43:00,
2013-04-05 10:54:00,72.0,67.0,29.80,WSW,250,2.0,4.0,84,0.00,,,1.42,,2013-04-05 14:54:00,
2013-04-05 11:02:00,72.0,67.0,29.80,WNW,286,4.0,10.0,84,0.00,,,1.42,,2013-04-05 15:02:00,
2013-04-05 11:13:00,72.0,67.0,29.80,WNW,286,4.0,10.0,84,0.00,,,1.42,,2013-04-05 15:13:00,
2013-04-05 11:23:00,72.0,67.0,29.81,WSW,254,2.0,8.0,84,0.00,,,1.42,,2013-04-05 15:23:00,
2013-04-05 11:33:00,73.0,68.0,29.81,West,276,7.0,14.0,83,0.00,,,1.42,,2013-04-05 15:33:00,
2013-04-05 11:43:00,73.0,68.0,29.81,West,276,7.0,14.0,83,0.00,,,1.42,,2013-04-05 15:43:00,
2013-04-05 11:54:00,72.0,66.0,29.81,WNW,290,8.0,11.0,81,0.00,,,1.37,,2013-04-05 15:54:00,
2013-04-05 12:03:00,72.0,65.0,29.82,WNW,300,8.0,12.0,80,0.00,,,1.33,,2013-04-05 16:03:00,
2013-04-05 12:14:00,72.0,65.0,29.82,WNW,300,8.0,12.0,80,0.00,,,1.33,,2013-04-05 16:14:00,
2013-04-05 12:23:00,73.0,63.0,29.81,WNW,298,8.0,10.0,71,0.00,,,1.25,,2013-04-05 16:23:00,
2013-04-05 12:33:00,73.0,63.0,29.81,NW,319,9.0,13.0,71,0.00,,,0.96,,2013-04-05 16:33:00,
2013-04-05 12:42:00,73.0,63.0,29.81,NW,319,9.0,13.0,71,0.00,,,0.96,,2013-04-05 16:42:00,
2013-04-05 12:53:00,72.0,62.0,29.82,WNW,300,8.0,13.0,71,0.00,,,0.66,,2013-04-05 16:53:00,
2013-04-05 13:03:00,73.0,62.0,29.82,NW,305,7.0,11.0,69,0.00,,,0.59,,2013-04-05 17:03:00,
2013-04-05 13:13:00,73.0,62.0,29.82,NW,305,7.0,11.0,69,0.00,,,0.59,,2013-04-05 17:13:00,
2013-04-05 13:23:00,74.0,61.0,29.81,North,5,9.0,16.0,63,0.00,,,0.57,,2013-04-05 17:23:00,
2013-04-05 13:33:00,73.0,60.0,29.82,NNE,30,11.0,15.0,64,0.00,,,0.55,,2013-04-05 17:33:00,
2013-04-05 13:45:00,73.0,60.0,29.82,NNE,30,11.0,15.0,64,0.00,,,0.55,,2013-04-05 17:45:00,
2013-04-05 13:53:00,72.0,61.0,29.82,NW,317,6.0,9.0,68,0.00,,,0.49,,2013-04-05 17:53:00,
2013-04-05 14:02:00,72.0,61.0,29.81,NNW,331,5.0,7.0,69,0.00,,,0.48,,2013-04-05 18:02:00,
2013-04-05 14:13:00,72.0,61.0,29.81,NNW,331,5.0,7.0,69,0.00,,,0.48,,2013-04-05 18:13:00,
2013-04-05 14:23:00,72.0,61.0,29.81,NNW,331,5.0,7.0,69,0.00,,,0.48,,2013-04-05 18:23:00,
2013-04-05 14:33:00,71.0,60.0,29.80,WNW,288,7.0,11.0,69,0.00,,,0.38,,2013-04-05 18:33:00,
2013-04-05 14:43:00,71.0,60.0,29.80,WNW,288,7.0,11.0,69,0.00,,,0.38,,2013-04-05 18:43:00,
2013-04-05 14:53:00,72.0,60.0,29.79,NW,318,9.0,14.0,67,0.00,,,0.34,,2013-04-05 18:53:00,
2013-04-05 15:01:00,73.0,58.0,29.79,WNW,302,9.0,13.0,60,0.00,,,0.26,,2013-04-05 19:01:00,
2013-04-05 15:02:00,73.0,60.0,29.79,NW,307,10.0,15.0,63,0.00,,,0.29,,2013-04-05 19:02:00,
2013-04-05 15:13:00,73.0,60.0,29.79,NW,307,10.0,15.0,63,0.00,,,0.29,,2013-04-05 19:13:00,
2013-04-05 15:23:00,73.0,58.0,29.79,WNW,302,9.0,13.0,60,0.00,,,0.26,,2013-04-05 19:23:00,
2013-04-05 15:33:00,73.0,58.0,29.79,WNW,302,9.0,13.0,60,0.00,,,0.26,,2013-04-05 19:33:00,
2013-04-05 15:42:00,73.0,58.0,29.79,WNW,302,9.0,13.0,60,0.00,,,0.26,,2013-04-05 19:42:00,
2013-04-05 15:53:00,73.0,58.0,29.79,WNW,302,9.0,13.0,60,0.00,,,0.26,,2013-04-05 19:53:00,
2013-04-05 16:22:00,74.0,57.0,29.78,West,271,10.0,14.0,55,0.00,,,0.22,,2013-04-05 20:22:00,
2013-04-05 16:33:00,74.0,57.0,29.78,West,271,10.0,14.0,55,0.00,,,0.22,,2013-04-05 20:33:00,
2013-04-05 16:42:00,74.0,57.0,29.78,West,271,10.0,14.0,55,0.00,,,0.22,,2013-04-05 20:42:00,
2013-04-05 16:52:00,74.0,57.0,29.77,NW,314,11.0,13.0,56,0.00,,,0.22,,2013-04-05 20:52:00,
2013-04-05 17:03:00,74.0,57.0,29.77,NW,307,11.0,14.0,56,0.00,,,0.22,,2013-04-05 21:03:00,
2013-04-05 17:13:00,74.0,57.0,29.77,NW,307,11.0,14.0,56,0.00,,,0.22,,2013-04-05 21:13:00,
2013-04-05 17:24:00,73.0,56.0,29.76,NW,308,10.0,13.0,56,0.00,,,0.22,,2013-04-05 21:24:00,
2013-04-05 17:33:00,73.0,58.0,29.76,WNW,302,5.0,8.0,59,0.00,,,0.22,,2013-04-05 21:33:00,
2013-04-05 17:43:00,73.0,58.0,29.76,WNW,302,5.0,8.0,59,0.00,,,0.22,,2013-04-05 21:43:00,
2013-04-05 17:55:00,72.0,57.0,29.76,WNW,295,9.0,13.0,60,0.00,,,0.22,,2013-04-05 21:55:00,
2013-04-05 18:03:00,72.0,58.0,29.77,WNW,286,8.0,14.0,61,0.00,,,0.22,,2013-04-05 22:03:00,
2013-04-05 18:13:00,72.0,58.0,29.77,WNW,286,8.0,14.0,61,0.00,,,0.22,,2013-04-05 22:13:00,
2013-04-05 18:23:00,71.0,57.0,29.77,WNW,286,6.0,12.0,61,0.00,,,0.22,,2013-04-05 22:23:00,
2013-04-05 18:33:00,71.0,58.0,29.77,WNW,282,6.0,9.0,63,0.00,,,0.22,,2013-04-05 22:33:00,
2013-04-05 18:43:00,71.0,58.0,29.77,WNW,282,6.0,9.0,63,0.00,,,0.22,,2013-04-05 22:43:00,
2013-04-05 18:53:00,70.0,58.0,29.78,West,268,8.0,13.0,65,0.00,,,0.22,,2013-04-05 22:53:00,
2013-04-05 19:03:00,69.0,57.0,29.78,NW,313,9.0,11.0,66,0.00,,,0.22,,2013-04-05 23:03:00,
2013-04-05 19:12:00,69.0,57.0,29.78,NW,313,9.0,11.0,66,0.00,,,0.22,,2013-04-05 23:12:00,
2013-04-05 19:23:00,68.0,56.0,29.78,WNW,291,5.0,9.0,65,0.00,,,0.22,,2013-04-05 23:23:00,
2013-04-05 19:33:00,67.0,56.0,29.78,WNW,302,7.0,10.0,68,0.00,,,0.22,,2013-04-05 23:33:00,
2013-04-05 19:42:00,67.0,56.0,29.78,WNW,302,7.0,10.0,68,0.00,,,0.22,,2013-04-05 23:42:00,
2013-04-05 19:53:00,66.0,56.0,29.79,NW,318,9.0,11.0,69,0.00,,,0.22,,2013-04-05 23:53:00,
2013-04-05 20:02:00,66.0,56.0,29.80,NW,322,8.0,14.0,70,0.00,,,0.22,,2013-04-06 00:02:00,
2013-04-05 20:13:00,66.0,56.0,29.80,NW,322,8.0,14.0,70,0.00,,,0.22,,2013-04-06 00:13:00,
2013-04-05 20:23:00,65.0,56.0,29.80,WNW,303,4.0,6.0,72,0.00,,,0.22,,2013-04-06 00:23:00,
2013-04-05 20:33:00,64.0,56.0,29.81,WNW,302,6.0,11.0,74,0.00,,,0.22,,2013-04-06 00:33:00,
2013-04-05 20:42:00,64.0,56.0,29.81,WNW,302,6.0,11.0,74,0.00,,,0.22,,2013-04-06 00:42:00,
2013-04-05 20:52:00,63.0,55.0,29.82,NNW,337,4.0,8.0,74,0.00,,,0.22,,2013-04-06 00:52:00,
2013-04-05 21:02:00,63.0,55.0,29.83,WNW,302,7.0,11.0,75,0.00,,,0.22,,2013-04-06 01:02:00,
2013-04-05 21:13:00,63.0,55.0,29.83,WNW,302,7.0,11.0,75,0.00,,,0.22,,2013-04-06 01:13:00,
2013-04-05 21:23:00,63.0,55.0,29.84,WNW,297,7.0,11.0,76,0.00,,,0.22,,2013-04-06 01:23:00,
2013-04-05 21:33:00,62.0,55.0,29.85,NW,312,4.0,7.0,77,0.00,,,0.21,,2013-04-06 01:33:00,
2013-04-05 21:43:00,62.0,55.0,29.85,NW,312,4.0,7.0,77,0.00,,,0.21,,2013-04-06 01:43:00,
2013-04-05 21:52:00,62.0,55.0,29.85,WNW,290,4.0,8.0,78,0.00,,,0.19,,2013-04-06 01:52:00,
2013-04-05 22:02:00,62.0,55.0,29.86,NNW,344,2.0,5.0,78,0.00,,,0.17,,2013-04-06 02:02:00,
2013-04-05 22:12:00,62.0,55.0,29.86,NNW,344,2.0,5.0,78,0.00,,,0.17,,2013-04-06 02:12:00,
2013-04-05 22:23:00,62.0,55.0,29.87,NW,304,2.0,5.0,78,0.00,,,0.16,,2013-04-06 02:23:00,
2013-04-05 22:32:00,62.0,55.0,29.87,NW,323,5.0,7.0,78,0.00,,,0.15,,2013-04-06 02:32:00,
2013-04-05 22:42:00,62.0,55.0,29.87,NW,323,5.0,7.0,78,0.00,,,0.15,,2013-04-06 02:42:00,
2013-04-05 22:53:00,62.0,55.0,29.87,NNW,342,4.0,7.0,78,0.00,,,0.15,,2013-04-06 02:53:00,
2013-04-05 23:03:00,62.0,55.0,29.88,NW,317,1.0,2.0,79,0.00,,,0.13,,2013-04-06 03:03:00,
2013-04-05 23:13:00,62.0,55.0,29.88,NW,317,1.0,2.0,79,0.00,,,0.13,,2013-04-06 03:13:00,
2013-04-05 23:22:00,62.0,56.0,29.88,NW,326,0.0,2.0,80,0.00,,,0.11,,2013-04-06 03:22:00,
2013-04-05 23:34:00,62.0,56.0,29.88,NW,323,0.0,2.0,80,0.00,,,0.09,,2013-04-06 03:34:00,
2013-04-05 23:43:00,62.0,56.0,29.88,NW,323,0.0,2.0,80,0.00,,,0.09,,2013-04-06 03:43:00,
2013-04-05 23:55:00,62.0,56.0,29.88,WNW,302,1.0,2.0,81,0.00,,,0.07,,2013-04-06 03:55:00,